Location: Davayat
(45.9471°N, 3.1105°E)
Time: 18:13:25
(UTC+00:00)

H-2A R/B - Pass Details

Date: 01 December 2020
Orbit: 733 x 836 km, 98.2° (Epoch: 23 January)

Event Time Altitude Azimuth Distance (km) Brightness Sun altitude
Exits shadow 17:35:25 24° 82° (E) 1,607 3.0 -15.3°
Maximum altitude 17:36:26 25° 64° (ENE) 1,543 3.0 -15.5°
Drops below altitude 10° 17:40:33 10° 10° (N) 2,326 4.3 -16.2°
Sets 17:43:11 0° 358° (N) 3,240 5.1 -16.6°
